Amsterdam, Netherlands

9:31 PM CEST on August 17, 2017 (GMT +0200)
Schiphol

Weather History for EHAM - January, 2013

Change the Weather History Date:

Friday, January 11, 2013

  Actual Average Record
Temperature  
Mean Temperature 32 °F -  
Max Temperature 36 °F 42 °F 51 °F (2005)
Min Temperature 28 °F 33 °F 17 °F (2003)
Degree Days  
Heating Degree Days 33    
Moisture  
Dew Point 29 °F    
Average Humidity 84    
Maximum Humidity 93    
Minimum Humidity 70    
Precipitation  
Precipitation 0.00 in - - ()
Sea Level Pressure  
Sea Level Pressure 30.04 in    
Wind  
Wind Speed 6 mph ()    
Max Wind Speed 14 mph    
Max Gust Speed -    
Visibility 7.4 miles    
Events Rain , Snow    
Averages and records for this station are not official NWS values.
T = Trace of Precipitation, MM = Missing Value Source: Averaged Metar Reports

Daily Weather History Graph

Daily Weather History Graph

Search for Another Location

Airport or City:

Trip Planner

Search our weather history database for the weather conditions in past years. The results will help you decide how hot, cold, wet, or windy it might be!

Date:

Astronomy

Jan. 11, 2013 Rise Set
Actual Time 8:46 AM CET 4:51 PM CET
Civil Twilight 8:06 AM CET 5:31 PM CET
Nautical Twilight 7:23 AM CET 6:14 PM CET
Astronomical Twilight 6:42 AM CET 6:55 PM CET
Moon 8:01 AM CET (1/11) 4:57 PM CET (1/11)
Length of Visible Light 9h 25m
Length of Day
8h 05m
Waning Crescent, 0% of the Moon is Illuminated
Jan 11
Waning Crescent
Jan 11
New
Jan 19
First Quarter
Jan 27
Full
Feb 3
Last Quarter

Hourly Weather History & Observations

Time (CET) Temp. Windchill Dew Point Humidity Pressure Visibility Wind Dir Wind Speed Gust Speed Precip Events Conditions
12:25 AM 32.0 °F 22.1 °F 28.4 °F 87% 29.95 in 6.2 mi ENE 13.8 mph - N/A   Partly Cloudy
12:55 AM 32.0 °F 22.1 °F 28.4 °F 87% 29.95 in - ENE 13.8 mph - N/A   Clear
1:00 AM 32 °F - 28 °F 78% 29.96 in 19 mi ENE 13.4 mph - -   Partly Cloudy
1:25 AM 32.0 °F 24.8 °F 28.4 °F 87% 29.95 in - East 8.1 mph - N/A   Clear
1:55 AM 30.2 °F 23.4 °F 26.6 °F 86% 29.95 in - East 6.9 mph - N/A   Clear
2:25 AM 30.2 °F 23.4 °F 26.6 °F 86% 29.95 in - East 6.9 mph - N/A   Clear
2:55 AM 30.2 °F 23.4 °F 26.6 °F 86% 29.98 in - East 6.9 mph - N/A   Clear
3:25 AM 28.4 °F 22.2 °F 26.6 °F 93% 29.98 in 6.2 mi ENE 5.8 mph - N/A   Partly Cloudy
3:55 AM 30.2 °F 26.7 °F 26.6 °F 86% 29.98 in 6.2 mi East 3.5 mph - N/A   Partly Cloudy
4:00 AM 30 °F - 26 °F 80% 29.99 in 19 mi East 4.5 mph - -  
4:25 AM 28.4 °F 22.2 °F 26.6 °F 93% 29.98 in 6.2 mi ESE 5.8 mph - N/A   Mostly Cloudy
4:55 AM 30.2 °F - 26.6 °F 86% 29.98 in 6.2 mi Variable 1.2 mph - N/A   Mostly Cloudy
5:25 AM 30.2 °F - 26.6 °F 86% 29.98 in 6.2 mi Variable 1.2 mph - N/A   Mostly Cloudy
5:55 AM 30.2 °F 26.7 °F 26.6 °F 86% 30.01 in 6.2 mi SSE 3.5 mph - N/A   Mostly Cloudy
6:25 AM 32.0 °F - 28.4 °F 87% 30.01 in 6.2 mi Variable 2.3 mph - N/A   Mostly Cloudy
6:55 AM 32.0 °F - 28.4 °F 87% 30.01 in 6.2 mi Variable 2.3 mph - N/A   Mostly Cloudy
7:00 AM 31 °F - 28 °F 85% 30.03 in 22 mi SE 2.2 mph - -   Partly Cloudy
7:25 AM 30.2 °F 26.7 °F 26.6 °F 86% 30.01 in 6.2 mi SSW 3.5 mph - N/A   Partly Cloudy
7:55 AM 28.4 °F - 26.6 °F 93% 30.04 in 6.2 mi Variable 2.3 mph - N/A   Partly Cloudy
8:25 AM 30.2 °F - 28.4 °F 93% 30.04 in 6.2 mi NW 2.3 mph - N/A   Scattered Clouds
8:55 AM 30.2 °F - 28.4 °F 93% 30.06 in 6.2 mi Variable 1.2 mph - N/A   Mostly Cloudy
9:25 AM 30.2 °F - 28.4 °F 93% 30.06 in 6.2 mi Variable 1.2 mph - N/A   Mostly Cloudy
9:55 AM 32.0 °F 28.7 °F 30.2 °F 93% 30.06 in 6.2 mi SSW 3.5 mph - N/A   Mostly Cloudy
10:00 AM 32 °F - 30 °F 87% 30.08 in 7 mi SSW 4.5 mph - -   Overcast
10:25 AM 32.0 °F - 30.2 °F 93% 30.06 in 6.2 mi Variable 1.2 mph - N/A   Mostly Cloudy
10:55 AM 32.0 °F 28.7 °F 30.2 °F 93% 30.06 in 6.2 mi NW 3.5 mph - N/A   Partly Cloudy
11:25 AM 33.8 °F 30.8 °F 30.2 °F 87% 30.09 in 6.2 mi West 3.5 mph - N/A   Mostly Cloudy
11:55 AM 33.8 °F 29.6 °F 30.2 °F 87% 30.09 in 6.2 mi SW 4.6 mph - N/A   Mostly Cloudy
12:25 PM 33.8 °F 28.6 °F 30.2 °F 87% 30.06 in 6.2 mi SW 5.8 mph - N/A   Partly Cloudy
12:55 PM 35.6 °F 29.9 °F 28.4 °F 75% 30.06 in 6.2 mi SW 6.9 mph - N/A   Partly Cloudy
1:00 PM 35 °F - 29 °F 70% 30.09 in 22 mi SW 6.7 mph - -   Partly Cloudy
1:25 PM 35.6 °F 29.2 °F 28.4 °F 75% 30.06 in - SW 8.1 mph - N/A   Clear
1:55 PM 35.6 °F 29.2 °F 28.4 °F 75% 30.06 in - SW 8.1 mph - N/A   Clear
2:25 PM 35.6 °F 29.9 °F 30.2 °F 81% 30.06 in - SSW 6.9 mph - N/A   Clear
2:55 PM 35.6 °F 31.7 °F 30.2 °F 81% 30.06 in - SSW 4.6 mph - N/A   Clear
3:25 PM 35.6 °F 29.9 °F 30.2 °F 81% 30.06 in - South 6.9 mph - N/A   Clear
3:55 PM 35.6 °F - 30.2 °F 81% 30.06 in - Variable 1.2 mph - N/A   Clear
4:00 PM 36 °F - 30 °F 71% 30.08 in 25 mi Calm Calm - -   Overcast
4:25 PM 35.6 °F - 30.2 °F 81% 30.06 in - Variable 1.2 mph - N/A   Clear
4:55 PM 35.6 °F 32.8 °F 30.2 °F 81% 30.06 in - NW 3.5 mph - N/A   Clear
5:25 PM 35.6 °F - 28.4 °F 75% 30.06 in - Variable 1.2 mph - N/A   Clear
5:55 PM 35.6 °F - 30.2 °F 81% 30.06 in 6.2 mi SSE 2.3 mph - N/A   Partly Cloudy
6:25 PM 33.8 °F 30.8 °F 30.2 °F 87% 30.06 in - SSE 3.5 mph - N/A   Clear
6:55 PM 35.6 °F - 30.2 °F 81% 30.06 in 6.2 mi Variable 2.3 mph - N/A   Partly Cloudy
7:00 PM 35 °F - 30 °F 74% 30.09 in 19 mi South 2.2 mph - -   Partly Cloudy
7:25 PM 35.6 °F 32.8 °F 30.2 °F 81% 30.06 in 6.2 mi South 3.5 mph - N/A Snow Light Snow Grains
7:55 PM 35.6 °F 31.7 °F 30.2 °F 81% 30.06 in 6.2 mi South 4.6 mph - N/A   Mostly Cloudy
8:25 PM 33.8 °F 29.6 °F 30.2 °F 87% 30.06 in 6.2 mi South 4.6 mph - N/A   Mostly Cloudy
8:55 PM 33.8 °F 29.6 °F 30.2 °F 87% 30.06 in 6.2 mi SSW 4.6 mph - N/A   Mostly Cloudy
9:25 PM 35.6 °F 30.7 °F 30.2 °F 81% 30.06 in 6.2 mi SSW 5.8 mph - N/A   Mostly Cloudy
9:55 PM 33.8 °F 28.6 °F 30.2 °F 87% 30.06 in 6.2 mi SSW 5.8 mph - N/A Snow Light Snow Grains
10:00 PM 35 °F - 31 °F 78% 30.10 in 14 mi SW 6.7 mph - - Rain Rain
10:25 PM 35.6 °F 29.9 °F 30.2 °F 81% 30.09 in 6.2 mi SW 6.9 mph - N/A Snow Light Snow Grains
10:55 PM 35.6 °F 29.9 °F 30.2 °F 81% 30.09 in 6.2 mi SW 6.9 mph - N/A Snow Light Snow Grains
11:25 PM 33.8 °F 27.7 °F 30.2 °F 87% 30.06 in 6.2 mi SSW 6.9 mph - N/A   Partly Cloudy
11:55 PM 33.8 °F 28.6 °F 28.4 °F 81% 30.06 in 6.2 mi SSW 5.8 mph - N/A   Partly Cloudy